Location: Haram ta Haram Freeway
(35.0583°N, 51.4202°E)
Time: 14:50:06
(UTC+04:30)

CAS-4A - Pass Details

Date: 03 July 2020
Orbit: 528 x 545 km, 43.0° (Epoch: 02 August)

Event Time Altitude Azimuth Distance (km) Brightness Sun altitude
Exits shadow 05:17:32 - 234° (SW) 1,837 ? -7.3°
Reaches altitude 10° 05:17:41 10° 234° (SW) 1,777 ? -7.3°
Maximum altitude 05:21:44 74° 149° (SSE) 554 ? -6.6°
Drops below altitude 10° 05:25:47 10° 65° (ENE) 1,773 ? -5.9°
Sets 05:28:01 0° 64° (ENE) 2,662 ? -5.5°
